EHI
0 0 0 0 0 0 0 0 0 0 0 0 0 0 0 0 0 0 1 4 7 9 6 2 0 0 0 0 0 0 0 0 0 0 0 0 0 0 0 0 0 0 0
0 0 0 0 0 0 0 0 0 0 0 0 0 0 0 0 0 0 0 2 6 7 6 2 0 0 0 0 0 0 0 0 0 0 0 0 0 0 0 0 0 0 0
0 0 0 0 0 0 0 0 0 0 0 0 0 0 0 0 0 0 0 1 2 4 3 1 0 0 0 0 0 0 0 0 0 0 0 0 0 0 0 0 0 0 0
0 0 0 0 0 0 0 0 0 0 0 0 0 0 0 0 0 0 0 0 0 1 1 0 0 0 0 0 0 0 0 0 0 0 0 0 0 0 0 0 0 0 0
0 0 0 0 0 0 0 0 0 0 0 0 0 0 0 0 0 0 0 0 0 0 0 0 0 0 0 0 0 0 0 0 0 0 0 0 0 0 0 0 0 0 0
0 0 0 0 0 0 0 0 0 0 0 0 0 0 0 0 0 0 0 0 0 0 0 0 0 0 0 0 0 0 0 0 0 0 0 0 0 0 0 0 0 0 0
0 0 0 0 0 0 0 0 0 0 0 0 0 0 0 0 0 0 0 0 0 0 0 0 0 0 0 0 0 0 0 0 0 0 0 0 0 0 0 0 0 0 0
0 0 0 0 0 0 0 0 0 0 0 0 0 0 0 0 0 0 0 0 0 0 0 0 0 0 0 0 0 0 0 0 0 0 0 0 0 0 0 0 0 0 0
0 0 0 0 0 0 0 0 0 0 0 0 0 0 0 0 0 0 0 0 0 0 0 0 0 0 0 0 0 0 0 0 0 0 0 0 0 0 0 0 0 0 0
0 0 0 0 0 0 0 0 0 0 0 0 0 0 0 0 0 0 0 0 0 0 0 0 0 0 0 0 0 0 0 0 0 0 0 0 0 0 0 0 0 0 0
0 0 0 0 0 0 0 0 0 0 0 0 0 0 0 0 0 0 0 0 0 0 0 0 0 0 0 0 0 0 0 0 0 0 0 0 0 0 0 0 0 0 0
0 0 0 0 0 0 0 0 0 0 0 0 0 0 0 0 0 0 0 0 0 0 0 0 0 0 0 0 0 0 0 0 0 0 0 0 0 0 0 0 0 0 0
0 0 0 0 0 0 0 0 0 0 0 0 0 0 0 0 0 0 0 0 0 0 0 0 0 0 0 0 0 0 0 0 0 0 0 0 0 0 0 0 0 0 0
0 0 0 0 0 0 0 0 0 0 0 0 0 0 0 0 0 0 0 0 0 0 0 0 0 0 0 0 0 0 0 0 0 0 0 0 0 0 0 0 0 0 0
0 0 0 0 0 0 0 0 0 0 0 0 1 0 0 0 0 0 0 0 0 0 0 0 0 0 0 0 0 0 0 0 0 0 0 0 0 0 0 0 0 0 0
0 0 0 0 0 0 0 0 0 0 0 0 0 0 0 0 0 0 0 0 0 0 0 0 0 0 0 0 0 0 0 0 0 0 0 0 0 0 0 0 0 0 0
0 0 0 0 0 0 1 0 0 0 0 0 0 0 0 0 0 0 0 0 0 0 0 0 0 0 0 0 0 0 0 0 0 0 0 0 0 0 0 0 0 0 0
0 0 0 0 0 0 0 0 0 0 0 0 0 0 0 0 0 0 0 0 0 0 0 0 0 0 0 0 0 0 0 0 0 0 0 0 0 0 0 0 0 0 0
0 0 0 0 0 0 0 0 0 0 0 0 0 0 0 0 0 0 0 0 0 0 0 0 0 0 0 0 0 0 0 0 0 0 0 0 0 0 0 0 0 0 0
0 0 0 0 0 0 0 0 0 0 0 0 0 0 0 0 0 0 0 0 0 0 0 0 0 0 0 0 0 0 0 0 0 0 0 0 0 0 0 0 0 0 0
0 0 0 0 0 0 0 0 0 0 0 0 0 0 0 0 0 0 0 0 0 0 0 0 0 0 0 0 0 0 0 0 0 0 0 0 0 0 0 0 0 0 0
0 0 0 0 0 0 0 0 0 0 0 0 0 0 0 0 0 0 0 0 0 0 0 0 0 0 0 0 0 0 0 0 0 0 0 0 0 0 0 0 0 0 0
0 0 0 0 0 0 0 0 0 0 0 0 0 0 0 0 0 0 0 0 0 0 0 0 0 0 0 0 0 0 0 0 0 0 0 0 0 0 0 0 0 0 0
0 0 0 0 0 0 0 0 0 0 0 0 0 0 0 0 0 0 0 0 0 0 0 0 0 0 0 0 0 0 0 0 0 0 0 0 0 0 0 0 0 0 0
0 0 0 0 0 0 0 0 0 0 0 0 0 0 0 0 0 0 0 0 0 0 0 0 0 0 0 0 0 0 0 0 0 0 0 0 0 0 0 0 0 0 0
0 0 0 0 0 0 0 0 0 0 0 0 0 0 0 0 0 0 0 0 0 0 0 0 0 0 0 0 0 0 0 0 0 0 0 0 0 0 0 0 0 0 0
Wind_Speed
5 5 4 4 5 4 4 5 5 5 5 5 5 6 5 5 5 5 4 10 11 11 11 11 9 8 8 8 8 8 8 8 8 8 8 8 8 8 7 6 6 5 5
5 5 4 4 5 5 5 5 6 5 5 5 6 6 6 6 6 6 4 7 11 11 11 11 10 9 9 9 8 8 8 8 8 7 7 7 7 7 6 5 5 4 3
5 5 5 4 4 4 5 5 5 4 4 5 6 6 6 7 8 7 6 5 5 9 10 11 11 10 10 9 9 9 8 8 7 8 7 7 7 6 5 5 4 3 2
5 4 4 5 5 4 4 4 4 4 4 4 3 4 5 6 8 8 7 6 5 5 8 11 11 11 11 10 10 10 9 8 8 8 7 7 6 5 5 4 3 3 2
5 4 4 4 5 4 4 4 4 4 4 4 3 3 4 5 7 8 7 7 6 5 5 8 11 11 10 11 11 11 10 10 9 8 8 7 6 5 5 4 3 2 2
4 4 4 5 5 4 4 4 3 3 3 3 3 3 3 5 6 7 8 7 6 6 6 6 6 7 10 10 10 11 11 10 10 9 9 8 7 6 5 4 3 2 2
4 4 4 4 4 5 5 6 4 3 3 2 2 0 1 1 4 5 6 6 7 7 6 6 5 4 5 10 10 11 12 11 11 10 9 9 8 6 6 5 3 3 2
4 4 5 4 5 4 5 5 4 3 3 3 3 3 1 1 1 2 4 6 8 6 7 8 6 6 5 4 7 11 10 10 11 10 10 9 8 7 6 5 4 3 2
5 5 5 5 5 5 6 6 6 6 4 3 3 5 4 4 2 1 2 4 6 6 6 6 7 7 6 5 5 9 10 10 11 11 10 10 9 8 6 6 5 4 3
4 5 5 5 5 5 6 7 7 5 5 4 3 2 3 4 4 2 1 1 3 5 5 6 7 7 7 5 6 9 11 11 11 12 11 10 10 8 7 6 6 5 3
4 4 5 5 6 5 6 6 6 6 5 5 4 3 2 1 2 4 3 1 1 1 3 4 4 5 7 6 6 8 12 12 11 11 11 11 10 9 8 7 6 5 4
4 4 4 4 5 5 6 7 6 7 6 6 5 4 4 4 3 3 3 3 2 1 1 1 2 4 5 6 9 12 13 13 12 11 10 10 10 10 9 8 6 5 5
3 4 4 3 4 4 5 6 7 7 7 7 7 5 4 4 4 4 4 3 2 1 1 1 1 2 4 4 6 12 13 13 11 11 10 9 8 8 8 8 6 5 5
3 4 4 3 3 3 4 5 5 7 6 7 7 7 5 5 4 4 4 4 3 1 1 2 1 2 3 4 6 11 8 12 11 10 9 9 8 7 6 6 5 4 3
3 4 3 2 2 2 2 3 3 5 6 6 7 7 6 5 5 4 4 4 5 4 4 3 2 2 3 3 6 6 5 10 11 9 8 7 8 7 6 5 4 3 2
5 5 5 4 3 2 1 2 2 3 4 5 5 6 6 5 5 4 4 4 4 5 4 3 3 2 3 4 6 5 4 8 9 8 7 7 7 7 6 5 5 4 4
6 7 5 4 4 3 2 1 1 2 4 4 4 5 6 6 5 5 4 4 4 4 4 2 1 2 3 5 4 4 4 4 4 7 7 7 7 8 7 6 6 5 5
6 6 6 5 5 5 4 3 1 1 2 4 5 5 6 5 6 5 5 5 5 4 4 4 2 2 3 4 5 5 4 5 4 8 8 9 9 9 8 7 6 6 6
6 6 6 6 5 5 5 4 2 1 0 2 3 5 6 6 6 5 6 5 4 4 3 4 3 2 2 4 5 5 6 5 6 8 10 10 10 10 9 8 7 7 7
6 6 6 6 5 5 4 4 3 2 1 0 1 3 5 6 6 7 6 6 5 5 4 5 4 3 3 4 5 6 5 4 5 6 7 8 10 10 9 8 8 8 7
6 5 5 6 6 5 5 4 3 2 1 1 1 2 3 6 8 7 6 6 7 5 5 5 5 4 4 5 5 4 6 6 5 4 5 5 5 5 5 7 8 8 8
5 5 6 6 6 6 9 8 4 2 2 2 2 2 3 4 7 8 9 10 9 7 6 5 4 6 5 5 5 7 7 6 4 3 4 4 4 4 4 3 6 8 8
5 5 5 6 6 7 10 9 7 3 3 2 2 2 3 4 5 4 7 8 6 8 8 6 7 6 6 6 8 8 6 4 4 6 5 4 3 4 3 4 8 8 8
4 4 5 5 5 8 11 9 6 4 3 3 3 3 4 4 4 5 6 6 4 4 4 5 6 5 5 7 7 7 8 7 6 4 3 4 2 2 3 3 6 7 7
4 4 4 5 6 7 12 9 6 3 4 4 4 4 4 4 7 8 7 7 6 4 6 8 8 7 10 12 11 9 8 8 5 2 2 4 3 3 2 2 3 6 6
3 3 4 5 6 6 12 10 7 3 4 4 4 4 6 6 7 7 6 7 7 5 6 7 8 8 7 9 11 9 8 8 5 3 3 4 4 3 3 1 1 2 3
Wind_Direction
209 206 205 203 205 204 204 212 218 223 232 237 235 225 209 194 187 188 192 185 176 172 169 169 166 162 157 153 151 146 143 141 140 138 138 136 132 131 130 128 126 122 120
210 202 200 202 206 208 213 217 221 218 225 228 232 223 205 188 184 187 187 185 179 175 174 174 173 170 166 162 159 156 153 152 150 148 144 142 140 139 138 136 133 127 127
216 205 201 199 200 199 213 224 229 224 228 227 226 216 194 183 178 182 184 181 180 181 179 179 177 177 177 173 169 165 163 162 160 158 153 149 148 147 146 148 149 150 154
235 214 207 203 192 184 200 215 214 214 228 219 211 204 186 178 177 180 182 181 177 182 186 186 182 183 184 183 181 177 175 174 171 168 164 160 159 158 158 162 167 171 187
243 226 218 209 190 182 193 215 204 196 209 210 205 199 182 176 175 182 185 186 184 182 181 190 186 186 188 190 189 185 183 184 183 180 176 173 169 168 170 173 175 189 210
246 232 228 219 196 190 193 197 200 200 198 194 200 196 193 185 177 184 188 187 188 189 186 185 185 193 193 192 192 191 189 190 190 188 186 182 181 182 186 184 187 202 219
244 233 233 221 204 201 202 193 186 195 200 170 133 152 327 201 184 185 184 182 189 192 187 187 186 184 195 198 195 195 196 195 194 193 192 190 187 187 188 188 195 204 220
250 241 226 218 210 204 202 199 187 179 194 174 150 139 149 336 291 193 178 187 190 186 188 193 189 188 189 186 199 198 197 196 197 197 194 188 184 185 189 192 198 201 211
259 245 235 223 214 204 204 202 193 186 192 194 174 154 157 198 228 270 196 189 183 180 189 190 192 193 193 188 189 201 196 194 197 197 192 187 184 186 190 191 194 192 194
270 251 240 230 223 217 210 208 199 192 184 189 195 194 170 160 157 186 274 190 179 180 185 190 195 195 194 188 192 194 195 194 197 199 195 190 187 188 191 196 198 193 191
286 266 245 233 227 221 217 211 202 197 193 188 180 175 166 153 141 144 174 178 143 172 177 178 181 187 191 188 189 196 196 195 197 200 197 193 193 193 195 196 195 196 198
293 284 259 240 231 222 216 211 204 203 202 195 187 179 167 161 170 154 157 166 164 179 146 148 163 181 185 184 194 194 195 196 198 199 198 196 197 197 196 195 195 195 196
301 300 281 253 236 228 219 211 204 207 203 196 194 195 189 184 163 155 149 152 150 161 141 152 194 182 178 175 190 193 196 195 199 200 200 197 194 193 194 194 193 194 194
294 306 303 279 255 237 223 207 206 209 203 200 201 194 190 192 179 168 159 150 145 159 178 194 201 199 176 171 193 190 194 194 199 203 201 193 187 185 184 186 186 187 190
325 336 330 316 303 258 231 203 206 210 202 202 202 196 191 192 187 181 168 160 156 172 204 198 189 196 175 164 177 181 181 192 195 199 198 191 183 177 171 166 163 152 148
357 359 358 354 345 342 281 211 202 205 196 199 198 194 194 191 181 179 175 168 163 161 184 193 189 177 163 155 154 158 169 174 185 184 182 177 169 160 152 145 133 124 119
8 8 8 6 4 6 359 337 220 199 196 193 188 189 195 185 180 179 173 169 171 158 162 171 163 141 133 135 131 128 124 138 155 161 160 154 145 137 131 123 119 112 103
10 9 10 14 12 15 15 12 329 235 199 193 187 182 184 180 179 177 175 177 173 161 155 156 153 141 132 142 134 130 125 120 115 123 129 125 120 115 112 110 108 106 100
11 12 13 12 9 8 7 1 358 12 209 194 186 184 177 174 178 172 175 174 169 163 144 144 149 137 121 129 122 116 113 107 113 113 111 109 108 105 104 104 104 102 97
10 10 10 6 2 2 3 358 5 19 26 93 170 177 175 177 180 175 172 168 162 155 148 144 139 131 125 128 129 130 122 109 109 106 98 97 97 96 98 104 104 100 96
7 2 6 4 359 358 4 5 5 17 41 59 96 139 161 173 178 174 166 164 159 157 156 150 143 136 141 146 147 140 129 117 96 101 99 87 84 77 76 87 94 98 97
356 2 6 3 2 360 1 15 27 36 58 77 90 97 124 143 163 163 160 163 165 165 162 155 153 154 155 151 138 140 137 138 125 123 106 88 77 79 66 71 92 98 98
357 360 360 3 357 350 7 16 33 56 60 67 83 100 109 114 120 127 141 146 157 167 166 158 157 161 159 159 149 146 149 136 126 141 117 96 77 75 56 69 90 95 95
351 353 358 360 358 1 13 20 38 58 63 63 73 86 102 105 113 116 115 108 105 118 155 156 157 160 156 152 150 143 135 108 97 107 106 109 103 83 60 42 74 88 89
354 354 356 4 6 359 12 24 51 59 71 70 69 71 94 103 116 114 111 107 95 85 91 109 122 128 136 138 136 129 130 132 126 130 102 112 125 107 76 39 45 68 79
349 357 13 9 10 5 11 28 52 68 80 75 66 61 70 93 108 107 112 114 108 100 100 91 89 92 106 125 133 143 146 143 132 141 149 119 136 136 125 84 39 35 50